GFSMW_925_temp_132.txt.gz
Temp
22 25 24 24 23 24 24 22 21 20 20 21 19 18 18 19 19 20 20 20 20 20 19 18 17 18 17 16 15 15 15 14 15 14 14 13 14 13 13 15 15 14 14
22 23 22 20 23 23 23 23 22 22 21 22 22 22 21 20 20 19 20 20 20 20 20 18 17 17 16 15 15 15 14 14 14 14 14 13 13 13 13 13 14 15 14
22 21 19 18 19 20 21 21 21 21 21 21 21 20 19 19 18 17 19 19 19 19 20 19 17 16 16 16 15 15 14 14 14 15 15 13 14 13 13 13 14 14 14
22 22 19 17 19 20 20 20 20 20 20 20 21 20 19 18 18 19 17 19 19 20 19 19 18 18 16 16 16 15 15 14 14 13 15 16 16 14 12 13 13 15 14
21 20 18 17 19 20 19 20 20 20 20 19 19 18 18 18 19 18 17 18 20 20 20 19 18 16 16 16 15 15 14 14 14 14 14 15 16 16 15 14 12 13 13
19 19 18 18 18 19 19 19 19 19 20 18 18 18 17 17 17 17 16 17 20 20 19 19 19 18 16 16 15 16 15 14 14 14 14 15 15 15 16 15 14 14 13
18 18 17 17 17 17 18 18 18 17 17 17 17 17 17 16 16 17 17 16 18 17 18 18 17 17 16 16 16 15 15 14 14 14 14 14 15 16 16 16 15 13 13
18 18 17 16 16 17 17 17 17 16 16 16 16 15 16 16 16 16 15 17 18 18 18 18 17 17 16 16 15 15 15 14 14 14 14 14 14 15 16 16 15 14 12
17 17 17 16 16 16 17 17 16 15 15 15 14 15 15 15 15 15 16 16 17 17 17 17 16 16 17 15 15 14 14 14 14 13 13 13 13 13 13 15 16 16 14
15 15 16 15 15 15 15 16 15 14 14 14 13 13 14 14 14 14 15 15 15 16 16 16 16 15 15 15 14 14 14 14 14 14 13 13 13 13 12 13 14 15 16
11 11 16 16 15 14 13 13 14 14 13 12 12 12 12 13 13 13 14 15 15 15 15 16 16 15 15 14 14 14 14 14 14 13 13 13 13 13 12 13 13 14 16
12 11 13 14 13 12 12 12 12 11 11 11 11 11 11 11 12 12 12 13 14 14 15 15 16 16 16 15 14 14 14 13 13 13 13 13 13 13 13 13 13 13 14
11 14 13 12 12 12 11 10 9 9 9 9 9 9 9 9 9 10 10 12 13 14 14 14 15 15 15 15 14 14 13 12 13 13 13 13 13 13 13 12 12 12 13
13 12 12 11 10 9 8 7 7 7 7 7 7 7 7 7 7 8 9 9 11 13 14 14 15 15 15 14 13 12 12 12 12 12 13 13 13 13 13 12 12 12 10
10 10 10 8 7 7 6 5 5 5 6 6 5 5 5 5 6 6 7 8 11 12 14 14 14 14 14 14 13 12 11 12 12 12 12 12 13 13 12 12 12 11 9
9 9 9 8 6 5 4 3 3 3 4 4 5 4 3 3 3 4 5 6 8 11 13 14 13 13 14 14 14 13 12 12 12 12 12 12 12 13 13 12 12 11 8
7 7 7 6 5 3 3 2 2 2 2 3 2 2 2 2 2 2 3 4 5 9 11 14 13 13 13 15 14 13 12 12 12 12 12 12 12 12 12 12 12 12 12
6 6 6 5 3 2 1 1 1 1 1 1 0 0 0 0 1 1 2 3 3 6 10 13 13 14 14 14 13 13 12 12 11 11 11 11 12 12 12 10 8 9 10
4 4 3 3 1 0 -0 -0 -0 -1 -1 -1 -2 -1 -1 -0 0 1 1 2 3 4 8 11 12 12 12 13 13 12 11 10 9 9 9 9 10 9 9 9 6 4 4
2 1 1 1 -0 -1 -1 -1 -2 -2 -3 -3 -3 -3 -2 -1 -0 0 1 1 3 4 6 7 8 12 11 10 11 11 9 7 5 5 5 5 6 6 4 6 5 1 -1
0 -1 -1 -1 -2 -2 -3 -3 -3 -3 -4 -4 -4 -3 -2 -1 -1 -0 0 2 3 4 4 4 2 5 8 7 6 8 8 6 2 1 0 0 2 2 1 1 2 0 -2
-1 -2 -2 -2 -3 -3 -4 -4 -4 -5 -5 -5 -4 -3 -3 -2 -2 -2 -0 2 3 2 2 1 0 1 1 3 3 5 6 3 2 -2 -2 -2 -0 0 0 -1 -3 -1 -1
-2 -2 -3 -3 -4 -4 -5 -5 -5 -6 -6 -5 -5 -4 -4 -3 -3 -3 -1 -0 1 1 0 0 -1 -2 -1 -1 -0 1 1 1 -1 -3 -4 -4 -4 -3 -4 -3 -2 -2 -3
-3 -3 -4 -4 -5 -5 -5 -5 -6 -6 -6 -6 -5 -5 -4 -4 -4 -4 -3 -2 0 0 0 -0 -1 -2 -3 -4 -3 -3 -3 -3 -5 -5 -6 -5 -5 -6 -7 -6 -5 -5 -6
-5 -4 -5 -5 -6 -6 -6 -6 -6 -7 -6 -6 -5 -5 -5 -5 -5 -4 -4 -4 -2 -0 0 -0 -1 -3 -4 -4 -4 -3 -4 -5 -6 -7 -7 -7 -7 -7 -7 -7 -8 -8 -8
-6 -5 -6 -6 -6 -7 -6 -6 -6 -7 -7 -6 -6 -6 -6 -6 -6 -5 -5 -5 -4 -2 -0 -0 -0 -3 -3 -4 -4 -5 -6 -6 -6 -6 -6 -7 -7 -7 -8 -8 -8 -9 -8

GFSMW_925_temp_135.txt.gz
Temp
19 22 24 25 25 24 23 24 20 20 19 18 18 17 17 18 19 19 19 19 18 18 18 18 17 18 17 16 15 15 15 14 14 14 13 13 13 13 13 13 14 14 14
18 19 22 19 18 19 19 23 21 20 19 18 18 18 17 18 21 20 19 19 19 19 18 17 17 17 16 16 15 15 14 14 14 15 14 13 12 12 12 12 13 14 13
18 19 19 16 18 17 17 17 18 18 19 19 18 19 18 19 17 17 18 18 19 19 18 17 17 16 16 15 15 15 15 14 14 15 15 13 14 13 12 12 13 13 13
17 18 17 16 18 18 19 19 19 19 19 19 20 20 19 18 18 18 20 20 19 19 20 18 17 16 16 15 15 15 15 15 14 14 15 16 16 14 12 12 12 12 12
17 17 16 17 18 19 19 19 19 19 19 20 20 19 18 18 18 18 18 19 20 19 19 19 18 16 16 15 15 15 14 14 15 14 14 14 15 16 13 13 12 11 12
16 16 15 17 15 17 18 17 18 17 18 18 18 18 17 17 17 17 16 17 19 19 19 19 18 17 16 15 15 15 15 14 14 14 14 14 15 14 14 14 14 13 12
16 16 15 15 14 15 15 16 16 15 16 16 16 16 16 16 16 16 15 16 16 17 19 19 18 16 16 15 15 15 14 14 14 14 14 14 15 16 15 16 14 13 11
14 15 16 15 14 15 15 15 15 15 15 15 16 16 16 16 15 15 15 15 15 16 17 19 19 18 17 15 15 15 14 14 14 14 14 14 14 14 15 15 14 13 11
10 14 14 14 14 13 14 14 13 13 14 14 14 15 14 14 14 14 14 15 15 16 16 16 18 18 18 16 15 15 15 15 14 14 14 13 13 14 14 15 15 14 13
10 11 12 12 12 12 12 11 12 11 11 12 12 13 13 13 13 13 13 14 14 15 15 15 16 17 17 16 15 15 15 14 14 14 14 13 13 13 13 14 13 13 14
10 11 12 12 11 11 10 10 10 10 9 10 10 10 11 11 11 11 12 12 13 14 14 14 15 15 15 15 15 15 14 14 14 14 14 13 13 13 13 12 12 12 13
9 10 10 10 9 9 8 7 7 7 7 8 8 8 9 9 9 10 10 11 12 13 14 14 15 15 15 15 14 14 14 14 14 14 13 13 13 13 13 13 12 12 12
9 8 8 8 7 6 6 6 5 6 6 6 7 7 7 6 7 8 8 9 10 11 12 14 14 14 14 14 14 14 14 14 14 13 13 13 13 13 13 13 12 12 12
7 8 7 6 6 5 5 4 4 4 5 5 5 5 4 5 5 6 7 7 8 9 11 12 13 14 14 14 14 14 14 13 13 13 13 13 13 13 13 13 12 12 10
6 6 6 6 5 4 3 3 2 2 3 3 4 3 3 3 4 4 5 6 7 7 9 10 13 13 13 13 13 14 14 13 13 13 13 13 13 12 13 12 12 12 10
7 7 6 5 4 3 2 2 1 1 1 2 2 1 1 1 2 3 3 3 4 5 6 9 10 13 13 13 13 14 13 13 12 12 12 12 13 12 12 12 12 12 9
5 5 4 3 2 1 0 0 0 -0 -0 -0 -0 -0 -0 -0 0 1 1 2 2 3 3 5 8 12 13 13 13 14 13 12 12 11 12 12 12 12 12 12 13 12 11
3 3 2 2 0 -1 -1 -1 -1 -2 -2 -2 -2 -2 -2 -1 -1 0 1 1 2 2 3 4 7 9 13 13 13 12 12 12 12 12 12 12 12 12 12 12 12 12 11
1 0 -0 -1 -1 -2 -3 -3 -3 -3 -3 -3 -4 -3 -3 -2 -1 -1 -0 0 1 2 3 4 5 7 10 13 12 12 11 11 11 11 11 11 11 11 11 11 11 9 7
-1 -2 -2 -2 -3 -3 -4 -4 -4 -4 -4 -5 -5 -4 -3 -2 -2 -1 -1 -1 -0 1 3 3 5 6 7 9 11 12 11 9 9 8 9 9 9 9 9 9 9 4 4
-2 -2 -3 -3 -4 -4 -5 -5 -5 -5 -6 -6 -5 -5 -4 -3 -3 -2 -3 -2 -1 1 2 2 4 3 4 7 5 10 12 10 7 6 5 5 5 6 6 6 5 3 2
-3 -3 -4 -4 -5 -5 -6 -6 -5 -6 -6 -6 -5 -5 -4 -4 -4 -4 -3 -3 -2 0 1 1 2 2 1 2 4 3 8 8 7 3 2 1 1 2 3 3 2 -0 -1
-4 -5 -5 -5 -5 -6 -6 -6 -6 -6 -7 -6 -6 -6 -5 -5 -5 -5 -5 -4 -3 -1 0 0 0 -0 -0 -0 0 1 1 4 3 1 -1 -1 -0 -1 -1 -2 -2 -1 -1
-5 -5 -5 -5 -6 -6 -6 -7 -6 -7 -7 -7 -7 -7 -7 -6 -6 -5 -5 -4 -4 -3 -1 -0 -1 -1 -2 -2 -2 -3 -2 -1 -1 -4 -4 -4 -4 -4 -5 -5 -3 -3 -3
-5 -6 -6 -6 -6 -7 -7 -7 -7 -7 -7 -7 -7 -7 -7 -7 -6 -6 -5 -5 -5 -4 -3 -1 -0 -2 -3 -3 -3 -3 -3 -4 -5 -4 -5 -6 -6 -6 -6 -6 -6 -6 -6
-6 -6 -7 -7 -7 -7 -7 -7 -7 -7 -8 -7 -7 -8 -8 -8 -7 -7 -6 -5 -5 -4 -4 -2 -1 -1 -1 -3 -3 -3 -4 -6 -6 -5 -6 -6 -6 -7 -7 -7 -8 -8 -8

GFSMW_925_temp_138.txt.gz
Temp
17 19 21 23 22 23 24 26 21 20 17 17 17 17 17 16 16 16 16 16 17 16 16 17 16 16 16 16 16 15 14 14 15 14 13 13 14 14 14 14 14 14 14
16 17 19 20 22 23 23 20 21 19 18 18 17 17 17 17 17 17 17 18 18 18 16 16 16 16 17 16 16 15 14 14 14 14 13 13 12 12 13 13 13 14 14
15 17 18 18 19 19 21 20 19 19 18 18 18 17 17 16 16 17 17 17 17 18 18 17 16 16 16 15 15 15 15 14 14 15 14 13 13 12 12 12 13 13 13
13 14 16 16 18 18 19 18 18 17 18 17 17 17 17 17 18 19 21 21 20 20 18 18 17 16 16 15 15 15 15 14 14 14 16 16 15 12 12 12 12 12 13
12 12 14 16 17 16 15 16 16 17 16 17 17 17 19 20 19 19 18 18 17 17 17 18 17 17 16 15 15 15 14 14 14 14 14 15 15 15 12 13 12 12 12
10 11 13 15 15 15 15 15 17 16 17 17 17 18 17 17 17 18 17 16 17 17 16 17 17 16 16 15 15 15 14 14 14 14 14 15 15 13 14 12 13 12 12
10 10 10 12 13 13 14 15 14 14 16 16 17 15 17 17 17 16 16 15 15 15 16 16 16 16 15 15 15 14 14 14 14 14 14 14 15 16 15 16 13 12 11
10 10 11 12 12 12 12 12 12 11 13 15 16 15 15 15 15 15 15 15 15 16 15 15 16 15 16 15 15 15 14 14 14 14 14 14 14 14 15 15 14 12 11
10 10 11 10 10 10 10 10 10 11 11 11 12 13 11 12 12 13 14 14 14 15 15 15 15 15 16 16 15 15 14 14 14 14 14 14 13 14 14 15 15 15 12
9 9 11 10 9 8 8 8 8 8 8 9 9 11 10 10 10 11 12 12 13 13 14 14 15 15 15 15 15 15 14 14 14 14 14 14 14 13 14 14 15 15 15
8 6 5 5 7 7 6 6 6 6 7 7 8 9 9 9 9 9 10 10 11 12 13 13 14 14 14 15 15 15 15 14 14 14 14 14 14 13 13 13 13 13 14
5 5 4 2 3 5 4 4 4 5 5 6 7 8 8 7 7 7 8 9 10 10 11 13 13 14 14 14 14 14 14 14 14 14 14 14 14 13 13 13 13 12 12
4 3 2 1 0 2 2 2 3 3 3 4 4 4 5 5 5 5 6 6 7 9 10 11 12 13 14 14 15 14 14 14 14 14 14 14 13 13 13 13 13 12 12
4 3 2 1 0 0 -0 1 1 1 2 2 3 2 2 2 3 3 4 5 5 6 7 8 10 12 13 13 14 14 14 14 14 14 14 14 13 13 13 13 13 13 12
4 4 3 2 1 1 0 0 0 -0 -0 1 1 0 0 1 1 1 2 3 3 4 6 7 8 10 12 13 13 14 14 14 14 14 14 14 13 14 13 13 13 12 12
4 3 3 2 1 0 -0 -1 -1 -1 -1 -1 -1 -1 -1 -0 -1 -0 0 1 2 2 3 3 5 7 10 11 13 13 13 13 13 13 13 13 13 13 13 13 13 12 11
2 1 1 1 0 -1 -2 -2 -2 -2 -2 -2 -3 -3 -2 -2 -2 -1 -0 0 1 1 2 3 3 5 8 10 11 13 13 12 13 13 13 13 14 13 13 12 13 12 12
-0 -0 -1 -2 -2 -3 -3 -4 -3 -3 -3 -3 -4 -4 -4 -3 -2 -1 -1 -1 -0 -0 1 2 3 4 5 8 10 12 12 12 12 12 13 13 13 12 12 12 12 12 12
-1 -2 -2 -3 -3 -4 -4 -5 -4 -4 -4 -5 -5 -5 -4 -4 -3 -3 -2 -2 -2 -1 0 1 2 3 4 6 8 9 9 11 11 12 12 12 12 12 12 12 12 12 11
-3 -3 -3 -4 -4 -5 -5 -5 -5 -5 -5 -5 -5 -5 -5 -4 -4 -3 -3 -3 -3 -2 -1 1 2 3 3 4 6 7 7 9 10 11 12 11 11 11 12 11 11 10 10
-3 -4 -4 -5 -5 -5 -6 -6 -6 -5 -6 -6 -6 -5 -6 -5 -5 -4 -4 -4 -4 -3 -1 0 1 2 2 3 3 4 6 7 8 8 9 9 9 10 10 10 10 9 9
-4 -5 -5 -5 -5 -6 -6 -6 -6 -6 -6 -6 -6 -6 -6 -6 -6 -6 -5 -5 -4 -3 -2 -1 -0 1 1 1 1 2 4 5 5 5 7 7 6 7 7 6 6 6 5
-5 -5 -6 -6 -6 -6 -7 -7 -7 -7 -7 -7 -7 -7 -7 -7 -7 -7 -6 -5 -5 -4 -4 -3 -1 -0 0 -0 -0 0 2 3 3 4 3 4 2 2 2 2 2 2 1
-5 -6 -6 -6 -6 -7 -7 -7 -7 -7 -7 -7 -7 -7 -8 -8 -7 -7 -7 -7 -6 -5 -4 -4 -3 -1 -1 -1 -1 -1 -1 -0 1 -0 -2 -2 -1 -0 -2 -3 -2 -1 -2
-6 -6 -7 -6 -7 -8 -7 -7 -7 -8 -8 -8 -8 -8 -8 -8 -8 -7 -7 -7 -6 -6 -5 -4 -4 -2 -1 -1 -2 -2 -2 -2 -3 -4 -4 -4 -5 -5 -5 -4 -4 -4 -4
-7 -7 -7 -7 -8 -8 -8 -8 -8 -8 -8 -8 -9 -9 -9 -9 -8 -8 -8 -5 -6 -6 -6 -4 -3 -3 -2 -2 -3 -3 -3 -3 -4 -4 -5 -5 -6 -6 -6 -6 -6 -6 -6

GFSMW_925_temp_141.txt.gz
Temp
18 18 18 18 20 21 22 23 22 23 19 17 16 16 16 16 16 16 16 16 16 16 16 16 16 17 16 15 15 14 14 14 14 14 14 13 14 14 14 15 15 15 15
16 16 16 16 16 17 19 21 21 22 19 18 17 17 17 16 16 16 15 15 16 16 16 16 16 16 15 15 15 15 14 14 14 14 14 14 13 13 13 13 13 13 14
14 15 15 15 15 16 17 18 18 18 19 19 18 17 17 17 16 16 16 16 17 16 16 16 16 16 15 15 15 15 15 14 14 15 16 14 15 14 12 13 13 13 13
14 14 14 14 13 14 15 16 17 17 17 18 18 18 18 17 16 16 16 18 21 20 17 16 17 16 15 15 15 15 15 14 14 14 15 16 18 18 14 12 13 13 13
13 13 13 13 13 13 14 14 15 16 17 18 18 18 18 18 17 16 17 18 18 20 19 19 16 17 16 15 15 15 15 14 14 14 15 16 15 16 17 15 13 12 12
12 12 13 12 13 13 14 14 14 14 16 17 17 17 17 16 18 18 17 16 16 17 16 19 16 17 16 15 16 15 15 15 15 14 15 16 16 16 18 19 15 13 13
11 10 10 12 13 14 12 12 12 11 12 13 14 14 15 16 16 16 16 17 16 15 16 16 16 16 16 15 15 15 15 15 14 14 14 15 16 17 18 18 18 15 13
8 8 5 6 8 9 9 9 10 10 10 10 10 11 13 14 15 16 14 14 15 15 14 15 15 15 15 15 15 15 15 14 14 14 14 14 15 15 16 17 18 15 13
6 5 4 4 4 5 6 7 9 9 9 9 9 9 9 10 9 11 12 12 13 13 14 14 14 14 14 15 14 15 15 14 14 14 14 14 14 14 14 15 16 17 16
5 4 3 2 3 2 3 4 5 6 6 7 8 8 8 8 10 10 9 11 11 11 12 14 14 14 14 14 14 14 14 14 14 14 14 14 14 14 13 14 15 15 16
3 2 1 0 1 2 1 2 3 4 5 6 6 5 5 6 8 7 7 7 8 9 11 11 12 13 14 14 14 14 14 14 14 14 14 14 14 14 13 13 14 14 15
3 2 0 -0 -0 -0 -0 -0 1 2 3 4 4 4 4 4 5 5 5 5 6 8 9 10 10 12 13 14 14 14 14 14 14 14 14 14 14 14 13 13 13 13 14
3 2 1 0 -0 -1 -1 -1 -1 -1 0 2 2 3 2 3 3 3 3 4 5 5 6 7 8 9 11 12 14 14 14 14 14 14 14 14 14 13 13 13 13 13 13
3 2 1 0 -0 -1 -2 -2 -2 -2 -2 -0 1 1 1 1 1 2 2 3 3 4 4 5 5 7 9 11 12 13 14 14 14 14 14 14 14 14 13 13 13 13 13
3 2 1 1 0 -2 -2 -3 -2 -2 -2 -1 -0 -0 -0 -0 -0 0 1 2 2 3 3 3 4 5 6 9 9 11 13 14 14 14 14 14 14 14 14 13 13 13 13
2 2 1 -0 -1 -2 -3 -3 -2 -2 -2 -2 -2 -2 -2 -1 -1 -0 0 1 1 1 1 3 3 4 5 5 6 8 9 13 13 13 14 14 14 14 14 14 13 13 12
1 1 -0 -1 -2 -3 -3 -4 -4 -3 -3 -3 -3 -3 -2 -2 -2 -1 -1 -0 -0 -0 0 1 2 3 4 4 5 6 8 10 12 13 13 13 13 13 13 13 13 13 13
-0 -0 -1 -2 -3 -3 -4 -4 -4 -4 -4 -4 -4 -4 -3 -3 -2 -2 -2 -2 -2 -1 -1 0 1 2 3 4 5 6 7 9 11 12 13 12 13 13 13 13 13 12 12
-1 -2 -3 -3 -3 -4 -5 -5 -4 -4 -4 -4 -5 -4 -4 -4 -3 -3 -3 -3 -3 -3 -2 -1 0 1 2 3 4 4 5 7 9 10 12 12 12 14 13 12 12 12 12
-2 -3 -4 -3 -4 -4 -5 -4 -4 -4 -5 -5 -5 -5 -5 -5 -4 -4 -4 -4 -4 -3 -3 -2 -1 0 1 1 2 3 3 4 6 9 10 12 12 12 13 12 12 11 12
-3 -4 -4 -4 -4 -5 -5 -5 -5 -5 -5 -6 -5 -5 -5 -5 -5 -5 -5 -5 -4 -4 -4 -3 -2 -1 0 0 1 2 2 2 3 5 8 10 11 11 12 12 12 12 12
-3 -4 -4 -4 -5 -5 -6 -5 -5 -6 -6 -6 -5 -6 -6 -6 -6 -6 -5 -5 -4 -4 -4 -4 -3 -2 -1 -0 0 1 1 2 2 3 5 6 7 8 10 10 10 10 9
-4 -4 -5 -5 -5 -6 -6 -6 -6 -6 -7 -6 -6 -7 -7 -7 -7 -7 -6 -6 -6 -5 -4 -4 -4 -3 -3 -1 -1 0 -1 1 1 2 3 4 4 5 4 6 7 6 6
-4 -5 -5 -5 -5 -6 -6 -6 -7 -7 -7 -7 -8 -8 -8 -7 -7 -7 -7 -7 -6 -5 -4 -5 -4 -3 -3 -2 -1 -1 -1 -1 -1 -1 -1 0 1 1 2 0 1 2 2
-5 -5 -5 -6 -6 -6 -6 -7 -7 -7 -7 -7 -8 -8 -8 -8 -7 -7 -7 -7 -7 -6 -6 -5 -5 -3 -3 -2 -2 -2 -2 -2 -2 -2 -3 -3 -3 -3 -2 -3 -2 -1 -2
-6 -6 -6 -6 -7 -7 -7 -7 -8 -8 -8 -8 -7 -8 -8 -8 -8 -7 -7 -7 -7 -7 -7 -7 -6 -5 -4 -3 -3 -3 -3 -3 -4 -4 -4 -5 -4 -5 -5 -5 -5 -5 -5

GFSMW_925_temp_147.txt.gz
Temp
22 21 20 19 16 16 17 18 19 20 21 23 23 23 22 23 23 23 23 23 22 19 18 18 20 19 20 19 20 20 20 20 20 21 20 19 19 19 19 18 18 18 18
21 20 17 15 14 13 13 13 14 18 20 21 23 24 24 24 24 23 23 23 22 21 18 18 19 19 19 18 18 18 18 19 19 20 20 18 17 18 18 18 18 18 18
18 17 15 13 13 11 10 9 10 12 17 20 21 23 23 24 24 23 23 22 22 22 19 18 19 19 19 18 18 17 17 16 16 18 18 16 17 18 18 18 18 18 17
15 14 13 11 11 10 8 7 7 8 11 13 19 21 23 24 24 23 23 22 22 21 20 19 19 19 18 18 18 17 17 16 15 15 16 19 20 20 20 19 17 17 17
13 12 11 10 9 7 7 6 5 5 6 7 11 14 19 23 23 24 23 22 21 21 20 19 19 18 18 18 17 16 16 15 16 15 15 16 17 19 18 19 17 15 16
12 11 10 9 9 6 5 4 3 3 3 3 6 8 12 18 22 24 23 21 20 19 19 18 18 18 18 17 16 16 15 15 15 15 15 16 17 17 18 20 19 17 16
11 10 10 9 8 6 4 2 1 2 2 2 4 5 7 10 17 21 22 20 19 18 17 18 18 17 17 16 16 16 16 15 15 15 15 15 16 17 18 19 19 19 19
12 11 10 8 6 5 3 2 0 0 1 1 2 4 5 6 12 18 19 18 16 15 15 16 16 15 15 16 14 16 16 16 15 15 15 15 15 15 17 18 18 18 19
11 10 8 6 5 4 3 1 1 -1 -0 1 1 3 3 5 8 11 13 14 14 15 15 14 14 15 15 14 16 17 15 15 16 15 15 15 15 15 16 17 17 18 18
10 9 7 5 4 3 2 2 0 -1 -1 -0 0 1 3 4 6 8 10 12 12 12 14 14 14 14 14 15 15 15 15 15 15 15 15 15 15 15 15 16 16 17 18
11 9 7 6 4 3 2 1 -0 -1 -2 -1 -0 0 2 3 4 7 9 10 11 12 13 13 14 13 14 14 14 15 15 14 15 15 15 15 15 15 15 15 15 16 16
11 10 8 6 2 2 1 -0 -1 -1 -2 -2 -0 -0 -1 1 2 5 7 9 10 11 12 13 13 14 13 14 13 14 14 14 14 14 14 14 14 14 15 15 15 15 16
11 9 8 4 1 1 -0 -0 -2 -2 -2 -2 -1 -0 -0 -0 1 3 5 7 8 9 10 11 12 12 12 13 13 13 12 12 13 14 14 14 14 14 14 14 14 14 14
10 9 8 6 4 3 2 0 -1 -2 -2 -2 -1 -0 -0 -0 0 2 3 4 6 7 8 9 10 11 11 12 9 8 8 9 11 12 13 14 14 14 14 14 14 14 14
9 8 7 6 5 4 3 1 -0 -1 -2 -2 -1 0 0 1 0 1 2 3 3 6 6 7 8 9 10 5 5 5 5 6 8 10 11 12 14 14 14 14 14 14 14
8 7 7 5 5 3 3 1 -0 -0 -1 -2 -1 0 0 1 1 1 3 3 3 4 5 6 6 7 8 5 3 3 3 5 6 8 10 11 12 13 14 14 14 14 14
7 6 6 5 4 3 3 1 0 -0 -0 -1 -1 -1 -0 0 0 1 2 2 2 2 3 3 4 5 5 3 2 2 2 5 6 7 8 9 10 11 13 13 13 14 14
6 6 5 4 3 3 2 1 1 0 -0 -1 -1 -1 -1 -1 0 1 1 1 2 2 2 2 3 2 3 1 1 1 3 4 4 4 5 5 6 8 9 12 13 13 13
5 5 4 3 3 3 2 1 1 1 -0 -1 -1 -1 -1 -1 -0 -0 0 1 1 1 2 2 1 1 1 1 0 -0 1 2 2 3 3 3 4 6 7 7 9 12 13
5 4 3 3 3 2 1 1 1 1 -1 -2 -2 -1 -1 -1 -0 -0 0 0 0 1 1 0 0 1 1 0 -1 -2 -1 0 0 1 1 2 2 3 4 4 6 9 11
4 3 3 3 3 2 1 1 1 -0 -2 -2 -2 -1 -1 -1 -1 -1 -1 -1 -1 -1 -1 -1 -1 0 -0 -1 -1 -1 -1 -1 -1 -1 0 1 1 1 1 3 4 6 9
4 3 2 2 2 2 1 1 0 -1 -2 -2 -2 -3 -2 -2 -2 -2 -2 -2 -2 -3 -2 -2 -2 -2 -2 -2 -3 -3 -2 -2 -2 -1 -1 -1 -0 0 2 3 4 5 6
3 3 2 2 1 1 -0 -0 -1 -2 -3 -3 -4 -4 -4 -4 -4 -4 -4 -3 -4 -4 -3 -3 -3 -3 -3 -3 -4 -4 -4 -2 -2 -2 -2 -2 -1 -1 0 2 2 4 4
2 1 1 1 0 -0 -1 -1 -3 -3 -4 -4 -4 -4 -4 -4 -4 -4 -4 -4 -4 -5 -5 -5 -5 -5 -4 -4 -6 -6 -5 -4 -3 -3 -4 -3 -2 -2 -1 -0 0 1 2
0 -1 -1 -1 -1 -2 -2 -3 -4 -4 -5 -5 -5 -4 -5 -5 -4 -4 -5 -4 -5 -5 -6 -6 -6 -6 -6 -6 -6 -6 -6 -5 -5 -5 -4 -2 -2 -2 -2 -2 -1 -1 -0
-3 -3 -4 -4 -4 -4 -4 -4 -5 -6 -6 -5 -5 -5 -5 -5 -5 -5 -5 -5 -5 -5 -5 -6 -7 -7 -7 -7 -7 -6 -6 -6 -5 -4 -3 -2 -2 -2 -3 -3 -3 -3 -3